Key West NAF, FL

12:23 AM EDT on May 26, 2017 (GMT -0400)
Key West Naval Air Station

Weather History for KNQX - May, 2014

Change the Weather History Date:

Sunday, May 18, 2014

  Actual Average Record
Temperature  
Mean Temperature 78 °F -  
Max Temperature 84 °F 85 °F 90 °F (1989)
Min Temperature 73 °F 76 °F 67 °F (1951)
Cooling Degree Days 12    
Growing Degree Days 28 (Base 50)    
Moisture  
Dew Point 66 °F    
Average Humidity 66    
Maximum Humidity 73    
Minimum Humidity 56    
Precipitation  
Precipitation 0.00 in - - ()
Sea Level Pressure  
Sea Level Pressure 30.05 in    
Wind  
Wind Speed 14 mph (ENE)    
Max Wind Speed 18 mph    
Max Gust Speed 26 mph    
Visibility 10 miles    
Events      
Averages and records for this station are not official NWS values.
T = Trace of Precipitation, MM = Missing Value Source: NWS Daily Summary

Daily Weather History Graph

Daily Weather History Graph

Search for Another Location

Airport or City:

Trip Planner

Search our weather history database for the weather conditions in past years. The results will help you decide how hot, cold, wet, or windy it might be!

Date:

Astronomy

May. 18, 2014 Rise Set
Actual Time 6:41 AM EDT 8:04 PM EDT
Civil Twilight 6:17 AM EDT 8:29 PM EDT
Nautical Twilight 5:47 AM EDT 8:59 PM EDT
Astronomical Twilight 5:17 AM EDT 9:29 PM EDT
Moon 11:59 PM EDT (5/18) 10:25 AM EDT (5/18)
Length of Visible Light 14h 12m
Length of Day
13h 23m
Waning Gibbous, 81% of the Moon is Illuminated
May 18
Waning Gibbous
May 21
Last Quarter
May 28
New
Jun 5
First Quarter
Jun 13
Full

Hourly Weather History & Observations

Time (EDT) Temp. Heat Index Dew Point Humidity Pressure Visibility Wind Dir Wind Speed Gust Speed Precip Events Conditions
12:53 AM 75.0 °F - 64.0 °F 69% 30.07 in 10.0 mi NE 11.5 mph - N/A   Clear
1:53 AM 75.0 °F - 64.0 °F 69% 30.05 in 10.0 mi NE 12.7 mph - N/A   Clear
2:53 AM 73.9 °F - 64.9 °F 73% 30.03 in 10.0 mi NE 12.7 mph - N/A   Clear
3:53 AM 73.9 °F - 64.9 °F 73% 30.03 in 10.0 mi NE 13.8 mph 19.6 mph N/A   Clear
4:53 AM 73.9 °F - 64.9 °F 73% 30.03 in 10.0 mi NE 11.5 mph 20.7 mph N/A   Clear
5:53 AM 73.9 °F - 64.9 °F 73% 30.04 in 10.0 mi NE 13.8 mph - N/A   Partly Cloudy
6:53 AM 73.9 °F - 64.9 °F 73% 30.05 in 10.0 mi NE 11.5 mph - N/A   Mostly Cloudy
7:53 AM 75.0 °F - 64.9 °F 71% 30.06 in 10.0 mi NE 13.8 mph 23.0 mph N/A   Mostly Cloudy
8:53 AM 77.0 °F - 64.9 °F 66% 30.07 in 10.0 mi NE 17.3 mph 24.2 mph N/A   Mostly Cloudy
9:53 AM 78.1 °F - 64.0 °F 62% 30.07 in 10.0 mi NE 16.1 mph 25.3 mph N/A   Mostly Cloudy
10:53 AM 81.0 °F 82.7 °F 64.9 °F 58% 30.07 in 10.0 mi NE 16.1 mph - N/A   Mostly Cloudy
11:53 AM 81.0 °F 83.0 °F 66.0 °F 60% 30.07 in 10.0 mi ENE 18.4 mph 24.2 mph N/A   Mostly Cloudy
12:53 PM 81.0 °F 83.3 °F 66.9 °F 62% 30.06 in 10.0 mi ENE 16.1 mph 24.2 mph N/A   Mostly Cloudy
1:53 PM 82.0 °F 84.5 °F 66.9 °F 60% 30.05 in 10.0 mi ENE 18.4 mph 24.2 mph N/A   Mostly Cloudy
2:53 PM 82.9 °F 85.0 °F 66.0 °F 56% 30.04 in 10.0 mi East 17.3 mph 26.5 mph N/A   Mostly Cloudy
3:53 PM 82.9 °F 85.4 °F 66.9 °F 58% 30.03 in 10.0 mi East 18.4 mph - N/A   Mostly Cloudy
4:53 PM 82.0 °F 84.9 °F 68.0 °F 62% 30.02 in 10.0 mi East 18.4 mph 23.0 mph N/A   Mostly Cloudy
5:53 PM 80.1 °F 82.1 °F 66.0 °F 62% 30.02 in 10.0 mi ENE 16.1 mph - N/A   Mostly Cloudy
6:53 PM 79.0 °F - 66.9 °F 66% 30.03 in 10.0 mi East 18.4 mph 25.3 mph N/A   Mostly Cloudy
7:53 PM 78.1 °F - 66.0 °F 66% 30.04 in 10.0 mi ENE 18.4 mph - N/A   Mostly Cloudy
8:53 PM 77.0 °F - 66.0 °F 69% 30.05 in 10.0 mi ENE 17.3 mph - N/A   Mostly Cloudy
9:53 PM 77.0 °F - 66.0 °F 69% 30.07 in 10.0 mi East 13.8 mph - N/A   Partly Cloudy
10:53 PM 77.0 °F - 66.0 °F 69% 30.08 in 10.0 mi ENE 12.7 mph - N/A   Mostly Cloudy
11:53 PM 77.0 °F - 66.0 °F 69% 30.07 in 10.0 mi ENE 13.8 mph 21.9 mph N/A   Scattered Clouds